Helicity
284 263 269 261 262 228 218 200 169 164 168 158 149 143 133 128 133 140 129 131 119 104
294 296 314 320 291 265 243 203 189 174 161 161 142 131 123 136 135 119 111 96 93 123
286 321 334 331 318 262 246 210 174 155 166 158 142 131 120 126 125 101 97 113 130 123
327 348 329 328 321 276 239 198 179 167 185 164 146 131 132 110 107 130 129 126 116 93
346 350 366 354 338 267 218 210 192 151 190 163 134 114 106 119 132 139 145 122 108 111
423 437 438 427 320 273 222 200 163 164 156 132 139 119 116 114 142 144 129 122 130 134
524 539 498 353 291 260 216 171 183 163 160 164 131 120 105 118 129 123 110 128 134 140
601 522 481 340 276 263 216 230 196 175 164 134 142 149 120 117 100 101 107 109 116 131
521 614 483 402 332 242 287 245 197 183 139 135 142 161 207 106 114 101 98 92 100 104
646 671 595 404 313 313 277 224 216 159 126 155 158 193 231 184 140 150 153 149 120 120
595 515 453 346 329 327 321 296 242 156 129 136 163 179 206 168 150 143 163 165 155 158
387 393 290 254 230 264 249 216 161 138 141 130 138 152 139 133 137 149 173 182 172 153
289 293 307 254 236 185 166 137 139 182 165 140 147 144 166 132 120 129 146 161 176 191
328 302 239 166 139 141 137 149 143 137 138 137 130 134 148 151 124 127 140 140 152 151
Wind_Speed
35 34 30 26 26 25 23 22 22 25 28 32 33 35 36 36 38 39 40 43 44 44
38 35 34 30 27 26 23 22 22 24 28 31 34 35 37 36 37 37 38 40 44 46
40 38 35 32 31 28 25 23 23 24 27 30 33 34 34 34 35 35 38 41 41 40
41 39 36 36 32 30 27 24 24 25 28 29 29 31 31 32 32 34 37 38 40 40
38 37 37 35 31 29 28 25 24 24 26 28 30 29 28 29 31 32 34 35 39 43
38 35 35 33 29 28 26 25 24 23 27 26 27 25 26 27 29 31 33 35 39 42
35 35 33 31 29 25 25 24 22 24 25 23 21 26 27 26 28 30 31 37 40 42
34 29 27 26 24 22 22 22 19 23 22 18 22 27 25 25 26 27 30 34 36 40
33 26 25 23 24 22 22 22 20 18 16 19 27 28 29 24 24 27 29 30 33 33
32 27 25 23 25 24 22 20 18 16 19 20 20 23 26 25 25 28 30 31 31 32
29 25 25 26 23 20 22 19 16 18 13 15 16 17 21 23 25 27 29 30 32 33
30 30 24 21 22 21 17 14 13 15 10 12 13 16 18 21 24 26 29 31 32 31
19 17 19 22 17 13 10 10 8 13 12 12 12 14 19 20 20 22 25 28 30 32
17 15 12 9 7 6 5 7 11 12 13 13 13 14 19 22 18 19 22 24 26 29
Wind_Direction
260 265 271 273 285 291 299 309 318 325 331 332 334 337 339 341 343 344 344 345 345 348
259 262 269 274 279 287 295 302 312 321 326 330 332 334 336 341 343 345 346 346 346 349
259 262 267 271 274 280 288 295 304 312 320 326 331 335 338 343 345 345 345 347 358 4
260 261 264 268 273 278 282 289 298 309 319 324 332 335 340 342 346 348 350 2 4 6
258 259 262 266 269 274 279 287 296 311 318 321 325 332 336 341 346 353 359 6 5 1
255 256 261 265 266 270 274 285 295 307 308 318 328 336 337 340 352 1 4 6 4 4
253 258 258 261 262 264 273 282 295 300 304 322 334 326 329 345 355 2 6 5 6 4
255 255 255 254 255 263 274 284 297 293 311 326 321 323 335 347 356 6 6 8 10 9
251 254 250 247 253 265 272 284 285 299 315 321 313 320 329 343 355 1 5 9 13 11
245 246 246 251 257 261 268 273 285 296 301 317 326 324 338 353 2 1 3 6 8 8
240 242 244 252 256 257 266 275 284 290 315 333 342 353 358 7 10 12 15 13 5 7
239 243 243 243 245 258 260 264 283 297 319 328 342 349 357 6 12 7 9 5 3 5
234 231 241 240 244 251 256 272 288 303 323 335 346 354 359 7 10 7 9 10 9 4
243 235 224 199 206 219 261 292 302 309 322 329 348 352 349 348 2 1 4 3 2 359